Regional Weather Roundup
Issued by NWS

Home | Current Version | Previous Version | Graphics & Text | Print | Product List | Glossary On
Versions: 1 2 3 4 5 6 7 8 9 10 11 12 13 14 15 16 17 18 19 20 21 22 23 24 25 26 27 28 29 30 31 32 33 34 35 36 37 38 39 40 41 42 43 44 45 46 47 48 49 50
000
ASUS43 KBIS 211020
RWRND

NORTH DAKOTA REGIONAL WEATHER ROUNDUP
NATIONAL WEATHER SERVICE BISMARCK ND
500 AM CDT THU AUG 21 2014

NOTE: "FAIR" INDICATES FEW OR NO CLOUDS BELOW 12,000 FEET WITH NO
SIGNIFICANT WEATHER AND/OR OBSTRUCTIONS TO VISIBILITY.


NDZ001>003-009>011-017-211100-
NORTHWEST NORTH DAKOTA

CITY           SKY/WX    TMP DP  RH WIND       PRES   REMARKS
WILLISTON      FOG       57  56  96 CALM      29.83R VSB 1/4
MINOT          CLOUDY    65  63  93 NW7       29.76R
MINOT AFB      CLOUDY    64  64 100 NW7       29.76R
$$

NDZ018>021-031>035-040>046-211100-
SOUTHWEST NORTH DAKOTA

CITY           SKY/WX    TMP DP  RH WIND       PRES   REMARKS
BISMARCK       CLEAR     66  64  93 NW6       29.75R
DICKINSON      CLEAR     55  54  96 W7        29.82R
GARRISON         N/A     63  63 100 N7        29.77R
HETTINGER ARPT PTCLDY    55  53  93 W7        29.84R
$$

NDZ004>008-012>016-024-026-027-054-211100-
NORTHEAST NORTH DAKOTA

CITY           SKY/WX    TMP DP  RH WIND       PRES   REMARKS
GRAND FORKS    CLOUDY    70  65  84 SE9       29.72F
GRND FRKS AFB  CLOUDY    68  68  99 SE5       29.74R
DEVILS LAKE    CLOUDY    70  63  78 E6        29.73S
$$

NDZ022-023-025-028>030-036>039-047>053-211100-
SOUTHEAST NORTH DAKOTA

CITY           SKY/WX    TMP DP  RH WIND       PRES   REMARKS
FARGO          CLOUDY    70  68  93 S8G17     29.69R
JAMESTOWN      MOCLDY    68  66  93 E6        29.72R
$$




USA.gov is the U.S. government's official web portal to all federal, state and local government web resources and services.